STARLINK-2334, 47792

Orbit data source: Space-Track

STARLINK-2334, 47792 is a payload satellite owned by SpaceX/Seattle (US) in LEO that was launched on Thu, 11 Mar 2021 UTC via an FALCON 9 launch vehicle from the Air Force Eastern Test Range (AFETR). Payload-class satellites include a variety of spacecraft equipped with specific instruments for various scientific and technological missions. These include communications satellites like Starlink; space stations such as the ISS; scientific satellites like the Hubble; Earth observation satellites from companies like Planet Labs, Umbra, and HawkEye 360; GPS; miniature CubeSats for education and research; and military/defense satellites.

Loading next visibility...
Identifier
47792, 2021-018F
Orbit
LEO
Country
Flag of USUS
Related business
Manufacturer
SpaceX/Seattle
Mission
Operational Commercial Communications
Bus & Motor
STARLINK, Unknown motor
Mass
260 kg wet, ~248 kg dry
Launch date (UTC)
2021-03-11 (5 years ago)
Launch vehicle
FALCON 9
Launch site
Air Force Eastern Test Range (AFETR)
Object type
Payload
Rocket body
Debris
Shape & HBR
Box + 1 Pan, 10.1 m
Radar Cross Section
13.562 m², Large (>1 m²)

Expand to show TLE details & history
Last TLE update: 16 hours ago

TLE from 16 hours ago
0 STARLINK-2334
1 47792U 21018F   26247.94385417  .00000268  00000-0  20374-4 0  9999
2 47792  53.1592 124.9557 0000558  80.1442 279.9623 15.31702445304238
Epoch: 2026-09-04T22:39Z
TLE epoch observation values (Epoch: 2026-09-04T22:39:09.000Z)
Latitude
0.00004°
Longitude
161.10781°
Altitude
471.567 km
Speed
7.632 km/s
True Right ascension
08h 19m 49s
True Declination
0° 00' 00"
Sunlit
Object was in daylight at epoch
Visualization orbit readout
Latitude
Unknown
Longitude
Unknown
Altitude
Unknown
Speed
Unknown
Apparent Right ascension
Unknown
Apparent Declination
Unknown
Sunlit
N/A
Visualization observer readout
Local Sidereal Time
06:17:16
Azimuth
Unknown
Elevation
Unknown
Doppler factor
Unknown
Orbital elements
Apogee altitude
471.372 km
Perigee altitude
470.607 km
Semi-major axis
6,849.126 km
Eccentricity
0.00006
Inclination
53.1592°
RAAN
124.9557°
Arg. of periapsis
80.1442°
True anomaly
279.956°
Mean anomaly
279.9623°
Eccentric anomaly
279.95915°
Mean motion
3.82904 °/min
Orbital period
94.02 mins
BSTAR
0.000020374
Loading maneuver chart data...
Computing Atmospheric mass density...
Loading historical data...
Loading historical data...
Loading historical data...
Loading historical data...
Loading historical data...
Loading historical data...
Loading historical data...

Documentation

Showing up to 5 results
|